Time,TemperatureF,DewpointF,PressureIn,WindDirection,WindDirectionDegrees,WindSpeedMPH,WindSpeedGustMPH,Humidity,HourlyPrecipIn,Conditions,Clouds,dailyrainin,SoftwareType,DateUTC
2013-04-09 00:00:00,67.7,58.4,29.65,SSE,153,5.0,10.0,72,0.00,,CLR,0.00,VWS V14.01,2013-04-09 05:00:00,
2013-04-09 00:02:00,67.8,58.1,29.65,SSE,155,4.0,7.0,71,0.00,,CLR,0.00,VWS V14.01,2013-04-09 05:02:00,
2013-04-09 00:07:00,67.9,58.2,29.64,SSE,153,7.0,10.0,71,0.00,,CLR,0.00,VWS V14.01,2013-04-09 05:07:00,
2013-04-09 00:12:00,68.1,58.0,29.64,SSW,197,6.0,12.0,70,0.00,,CLR,0.00,VWS V14.01,2013-04-09 05:12:00,
2013-04-09 00:17:00,68.0,57.9,29.64,ESE,118,4.0,12.0,70,0.00,,CLR,0.00,VWS V14.01,2013-04-09 05:17:00,
2013-04-09 00:22:00,68.0,57.5,29.64,South,175,6.0,12.0,69,0.00,,CLR,0.00,VWS V14.01,2013-04-09 05:22:00,
2013-04-09 00:27:00,67.9,57.4,29.64,SSE,154,5.0,12.0,69,0.00,,CLR,0.00,VWS V14.01,2013-04-09 05:27:00,
2013-04-09 00:30:00,67.9,57.4,29.64,SSE,167,5.0,12.0,69,0.00,,CLR,0.00,VWS V14.01,2013-04-09 05:30:00,
2013-04-09 00:32:00,67.9,57.4,29.64,SSE,163,4.0,10.0,69,0.00,,CLR,0.00,VWS V14.01,2013-04-09 05:32:00,
2013-04-09 00:38:00,67.9,57.4,29.64,SSE,167,7.0,10.0,69,0.00,,CLR,0.00,VWS V14.01,2013-04-09 05:38:00,
2013-04-09 00:43:00,67.8,57.3,29.64,South,183,2.0,10.0,69,0.00,,CLR,0.00,VWS V14.01,2013-04-09 05:43:00,
2013-04-09 00:48:00,67.7,57.2,29.64,SSE,164,2.0,10.0,69,0.00,,CLR,0.00,VWS V14.01,2013-04-09 05:48:00,
2013-04-09 00:53:00,67.5,57.4,29.65,SSE,159,7.0,10.0,70,0.00,,CLR,0.00,VWS V14.01,2013-04-09 05:53:00,
2013-04-09 00:58:00,67.4,57.3,29.65,South,173,3.0,10.0,70,0.00,,CLR,0.00,VWS V14.01,2013-04-09 05:58:00,
2013-04-09 01:00:00,67.4,57.3,29.65,SSE,147,1.0,10.0,70,0.00,,CLR,0.00,VWS V14.01,2013-04-09 06:00:00,
2013-04-09 01:03:00,67.4,57.3,29.65,SSE,167,3.0,6.0,70,0.00,,CLR,0.00,VWS V14.01,2013-04-09 06:03:00,
2013-04-09 01:09:00,67.4,57.3,29.65,South,184,2.0,7.0,70,0.00,,CLR,0.00,VWS V14.01,2013-04-09 06:09:00,
2013-04-09 01:14:00,67.4,57.3,29.65,South,175,2.0,7.0,70,0.00,,CLR,0.00,VWS V14.01,2013-04-09 06:14:00,
2013-04-09 01:19:00,67.3,57.2,29.65,South,174,3.0,7.0,70,0.00,,CLR,0.00,VWS V14.01,2013-04-09 06:19:00,
2013-04-09 01:24:00,67.2,57.5,29.65,SSE,154,5.0,7.0,71,0.00,,CLR,0.00,VWS V14.01,2013-04-09 06:24:00,
2013-04-09 01:29:00,67.2,57.5,29.65,South,186,4.0,7.0,71,0.00,,CLR,0.00,VWS V14.01,2013-04-09 06:29:00,
2013-04-09 01:30:00,67.2,57.5,29.65,South,176,4.0,7.0,71,0.00,,CLR,0.00,VWS V14.01,2013-04-09 06:30:00,
2013-04-09 01:34:00,67.4,57.7,29.65,South,187,2.0,11.0,71,0.00,,CLR,0.00,VWS V14.01,2013-04-09 06:34:00,
2013-04-09 01:39:00,67.4,57.7,29.65,South,173,4.0,11.0,71,0.00,,CLR,0.00,VWS V14.01,2013-04-09 06:39:00,
2013-04-09 01:45:00,67.5,57.8,29.65,SSW,194,3.0,11.0,71,0.00,,CLR,0.00,VWS V14.01,2013-04-09 06:45:00,
2013-04-09 01:50:00,67.4,57.7,29.65,South,171,6.0,12.0,71,0.00,,CLR,0.00,VWS V14.01,2013-04-09 06:50:00,
2013-04-09 01:55:00,67.3,57.6,29.65,South,175,4.0,12.0,71,0.00,,CLR,0.00,VWS V14.01,2013-04-09 06:55:00,
2013-04-09 02:00:00,67.4,57.7,29.65,South,183,3.0,12.0,71,0.00,,CLR,0.00,VWS V14.01,2013-04-09 07:00:00,
2013-04-09 02:05:00,67.4,57.7,29.65,South,184,2.0,6.0,71,0.00,,CLR,0.00,VWS V14.01,2013-04-09 07:05:00,
2013-04-09 02:10:00,67.3,58.0,29.65,SSE,162,2.0,6.0,72,0.00,,CLR,0.00,VWS V14.01,2013-04-09 07:10:00,
2013-04-09 02:15:00,67.2,57.9,29.65,South,182,3.0,6.0,72,0.00,,CLR,0.00,VWS V14.01,2013-04-09 07:15:00,
2013-04-09 02:20:00,67.0,57.7,29.65,SSE,163,3.0,6.0,72,0.00,,CLR,0.00,VWS V14.01,2013-04-09 07:20:00,
2013-04-09 02:25:00,66.8,57.5,29.65,SSE,167,2.0,6.0,72,0.00,,CLR,0.00,VWS V14.01,2013-04-09 07:25:00,
2013-04-09 02:30:00,66.7,57.4,29.65,SSE,158,2.0,9.0,72,0.00,,CLR,0.00,VWS V14.01,2013-04-09 07:30:00,
2013-04-09 02:35:00,66.7,57.4,29.65,SSW,208,1.0,9.0,72,0.00,,CLR,0.00,VWS V14.01,2013-04-09 07:35:00,
2013-04-09 02:40:00,66.7,57.4,29.65,SW,222,1.0,9.0,72,0.00,,CLR,0.00,VWS V14.01,2013-04-09 07:40:00,
2013-04-09 02:46:00,66.7,57.4,29.65,SSW,194,3.0,9.0,72,0.00,,CLR,0.00,VWS V14.01,2013-04-09 07:46:00,
2013-04-09 02:51:00,66.8,57.5,29.65,SSW,200,1.0,9.0,72,0.00,,CLR,0.00,VWS V14.01,2013-04-09 07:51:00,
2013-04-09 02:56:00,66.8,57.5,29.65,South,181,1.0,9.0,72,0.00,,CLR,0.00,VWS V14.01,2013-04-09 07:56:00,
2013-04-09 03:00:00,66.9,57.6,29.65,South,184,2.0,9.0,72,0.00,,CLR,0.00,VWS V14.01,2013-04-09 08:00:00,
2013-04-09 03:02:00,66.8,57.5,29.65,South,187,0.0,3.0,72,0.00,,CLR,0.00,VWS V14.01,2013-04-09 08:02:00,
2013-04-09 03:07:00,66.6,57.3,29.65,SSW,192,0.0,4.0,72,0.00,,CLR,0.00,VWS V14.01,2013-04-09 08:07:00,
2013-04-09 03:12:00,66.4,57.1,29.65,SE,136,10.0,10.0,72,0.00,,CLR,0.00,VWS V14.01,2013-04-09 08:12:00,
2013-04-09 03:17:00,66.4,57.5,29.65,SSW,196,1.0,10.0,73,0.00,,CLR,0.00,VWS V14.01,2013-04-09 08:17:00,
2013-04-09 03:22:00,66.4,57.5,29.65,South,173,2.0,10.0,73,0.00,,CLR,0.00,VWS V14.01,2013-04-09 08:22:00,
2013-04-09 03:27:00,66.4,57.5,29.64,South,169,5.0,10.0,73,0.00,,CLR,0.00,VWS V14.01,2013-04-09 08:27:00,
2013-04-09 03:30:00,66.5,57.6,29.64,SE,144,3.0,10.0,73,0.00,,CLR,0.00,VWS V14.01,2013-04-09 08:30:00,
2013-04-09 03:32:00,66.5,57.6,29.64,South,180,6.0,10.0,73,0.00,,CLR,0.00,VWS V14.01,2013-04-09 08:32:00,
2013-04-09 03:37:00,66.5,57.6,29.64,SSW,198,3.0,10.0,73,0.00,,CLR,0.00,VWS V14.01,2013-04-09 08:37:00,
2013-04-09 03:42:00,66.5,57.6,29.64,SSE,159,1.0,10.0,73,0.00,,CLR,0.00,VWS V14.01,2013-04-09 08:42:00,
2013-04-09 03:47:00,66.6,57.7,29.64,SSW,192,5.0,10.0,73,0.00,,CLR,0.00,VWS V14.01,2013-04-09 08:47:00,
2013-04-09 03:52:00,66.5,57.6,29.64,South,180,2.0,10.0,73,0.00,,CLR,0.00,VWS V14.01,2013-04-09 08:52:00,
2013-04-09 03:57:00,66.5,57.6,29.64,South,176,1.0,10.0,73,0.00,,CLR,0.00,VWS V14.01,2013-04-09 08:57:00,
2013-04-09 04:00:00,66.4,57.5,29.64,SSE,165,3.0,10.0,73,0.00,,CLR,0.00,VWS V14.01,2013-04-09 09:00:00,
2013-04-09 04:03:00,66.3,57.8,29.64,SSW,193,2.0,6.0,74,0.00,,CLR,0.00,VWS V14.01,2013-04-09 09:03:00,
2013-04-09 04:08:00,66.2,57.7,29.64,South,184,4.0,10.0,74,0.00,,CLR,0.00,VWS V14.01,2013-04-09 09:08:00,
2013-04-09 04:13:00,66.2,57.7,29.64,SE,146,3.0,10.0,74,0.00,,CLR,0.00,VWS V14.01,2013-04-09 09:13:00,
2013-04-09 04:18:00,66.1,57.6,29.65,SSW,202,1.0,10.0,74,0.00,,CLR,0.00,VWS V14.01,2013-04-09 09:18:00,
2013-04-09 04:23:00,66.0,57.5,29.65,SSE,167,3.0,10.0,74,0.00,,CLR,0.00,VWS V14.01,2013-04-09 09:23:00,
2013-04-09 04:28:00,65.9,57.4,29.65,South,190,1.0,10.0,74,0.00,,CLR,0.00,VWS V14.01,2013-04-09 09:28:00,
2013-04-09 04:30:00,65.9,57.4,29.65,South,190,2.0,10.0,74,0.00,,CLR,0.00,VWS V14.01,2013-04-09 09:30:00,
2013-04-09 04:33:00,65.8,57.3,29.65,South,169,3.0,4.0,74,0.00,,CLR,0.00,VWS V14.01,2013-04-09 09:33:00,
2013-04-09 04:39:00,65.7,57.2,29.65,SSE,166,5.0,8.0,74,0.00,,CLR,0.00,VWS V14.01,2013-04-09 09:39:00,
2013-04-09 04:44:00,65.7,57.2,29.65,SSW,192,2.0,8.0,74,0.00,,CLR,0.00,VWS V14.01,2013-04-09 09:44:00,
2013-04-09 04:49:00,65.6,57.1,29.65,SE,145,3.0,8.0,74,0.00,,CLR,0.00,VWS V14.01,2013-04-09 09:49:00,
2013-04-09 04:54:00,65.3,56.8,29.65,South,173,0.0,8.0,74,0.00,,CLR,0.00,VWS V14.01,2013-04-09 09:54:00,
2013-04-09 05:00:00,65.2,57.1,29.65,South,180,1.0,8.0,75,0.00,,CLR,0.00,VWS V14.01,2013-04-09 10:00:00,
2013-04-09 05:05:00,65.0,56.9,29.65,SSE,163,0.0,4.0,75,0.00,,CLR,0.00,VWS V14.01,2013-04-09 10:05:00,
2013-04-09 05:10:00,64.8,56.7,29.65,SSE,152,2.0,4.0,75,0.00,,CLR,0.00,VWS V14.01,2013-04-09 10:10:00,
2013-04-09 05:15:00,64.5,56.8,29.65,South,190,0.0,5.0,76,0.00,,CLR,0.00,VWS V14.01,2013-04-09 10:15:00,
2013-04-09 05:20:00,64.3,56.6,29.66,South,171,2.0,5.0,76,0.00,,CLR,0.00,VWS V14.01,2013-04-09 10:20:00,
2013-04-09 05:25:00,64.1,56.4,29.66,SSE,162,1.0,5.0,76,0.00,,CLR,0.00,VWS V14.01,2013-04-09 10:25:00,
2013-04-09 05:30:00,64.0,56.3,29.66,SSE,165,0.0,0.0,76,0.00,,CLR,0.00,VWS V14.01,2013-04-09 10:30:00,
2013-04-09 05:36:00,63.9,56.2,29.66,South,188,2.0,6.0,76,0.00,,CLR,0.00,VWS V14.01,2013-04-09 10:36:00,
2013-04-09 05:41:00,63.8,56.1,29.67,SSE,165,2.0,6.0,76,0.00,,FEW047,0.00,VWS V14.01,2013-04-09 10:41:00,
2013-04-09 05:47:00,63.8,56.5,29.67,SSW,194,3.0,6.0,77,0.00,,FEW047,0.00,VWS V14.01,2013-04-09 10:47:00,
2013-04-09 05:52:00,63.9,56.6,29.67,SSE,167,2.0,6.0,77,0.00,,CLR,0.00,VWS V14.01,2013-04-09 10:52:00,
2013-04-09 05:57:00,64.1,56.8,29.67,SSE,150,5.0,7.0,77,0.00,,CLR,0.00,VWS V14.01,2013-04-09 10:57:00,
2013-04-09 06:00:00,64.2,56.8,29.67,South,178,2.0,7.0,77,0.00,,CLR,0.00,VWS V14.01,2013-04-09 11:00:00,
2013-04-09 06:02:00,64.3,56.6,29.67,SSW,194,0.0,4.0,76,0.00,,CLR,0.00,VWS V14.01,2013-04-09 11:02:00,
2013-04-09 06:07:00,64.3,57.0,29.67,South,178,0.0,4.0,77,0.00,,CLR,0.00,VWS V14.01,2013-04-09 11:07:00,
2013-04-09 06:12:00,64.3,57.0,29.67,SSW,197,5.0,5.0,77,0.00,,CLR,0.00,VWS V14.01,2013-04-09 11:12:00,
2013-04-09 06:18:00,64.4,57.0,29.67,SE,144,4.0,7.0,77,0.00,,CLR,0.00,VWS V14.01,2013-04-09 11:18:00,
2013-04-09 06:23:00,64.5,56.8,29.67,SSE,163,2.0,9.0,76,0.00,,CLR,0.00,VWS V14.01,2013-04-09 11:23:00,
2013-04-09 06:28:00,64.6,56.9,29.67,SE,126,2.0,9.0,76,0.00,,CLR,0.00,VWS V14.01,2013-04-09 11:28:00,
2013-04-09 06:30:00,64.7,57.3,29.67,SE,136,1.0,9.0,77,0.00,,CLR,0.00,VWS V14.01,2013-04-09 11:30:00,
2013-04-09 06:33:00,64.7,57.0,29.67,SSE,165,2.0,5.0,76,0.00,,CLR,0.00,VWS V14.01,2013-04-09 11:33:00,
2013-04-09 06:38:00,64.7,57.3,29.67,SSE,161,8.0,8.0,77,0.00,,CLR,0.00,VWS V14.01,2013-04-09 11:38:00,
2013-04-09 06:43:00,64.7,57.3,29.67,SE,124,6.0,8.0,77,0.00,,BKN030,0.00,VWS V14.01,2013-04-09 11:43:00,
2013-04-09 06:48:00,64.8,57.4,29.67,South,175,1.0,8.0,77,0.00,,BKN030,0.00,VWS V14.01,2013-04-09 11:48:00,
2013-04-09 06:53:00,64.8,57.4,29.67,SE,137,1.0,8.0,77,0.00,,BKN030,0.00,VWS V14.01,2013-04-09 11:53:00,
2013-04-09 06:58:00,64.8,57.4,29.67,SSE,157,1.0,8.0,77,0.00,,BKN030,0.00,VWS V14.01,2013-04-09 11:58:00,
2013-04-09 07:00:00,64.8,57.4,29.67,ESE,117,3.0,8.0,77,0.00,,CLR,0.00,VWS V14.01,2013-04-09 12:00:00,
2013-04-09 07:03:00,64.8,57.4,29.67,ESE,105,2.0,5.0,77,0.00,,BKN030,0.00,VWS V14.01,2013-04-09 12:03:00,
2013-04-09 07:08:00,64.8,57.4,29.67,SE,145,2.0,7.0,77,0.00,,BKN030,0.00,VWS V14.01,2013-04-09 12:08:00,
2013-04-09 07:14:00,65.0,58.0,29.67,SSE,149,4.0,7.0,78,0.00,,BKN030,0.00,VWS V14.01,2013-04-09 12:14:00,
2013-04-09 07:19:00,65.0,58.0,29.67,SSE,159,4.0,7.0,78,0.00,,BKN030,0.00,VWS V14.01,2013-04-09 12:19:00,
2013-04-09 07:24:00,65.2,58.2,29.67,South,169,4.0,9.0,78,0.00,,BKN030,0.00,VWS V14.01,2013-04-09 12:24:00,
2013-04-09 07:29:00,65.3,58.3,29.68,SW,221,1.0,9.0,78,0.00,,BKN030,0.00,VWS V14.01,2013-04-09 12:29:00,
2013-04-09 07:30:00,65.3,58.3,29.68,South,173,3.0,9.0,78,0.00,,CLR,0.00,VWS V14.01,2013-04-09 12:30:00,
2013-04-09 07:34:00,65.4,58.4,29.68,SSE,167,0.0,7.0,78,0.00,,BKN030,0.00,VWS V14.01,2013-04-09 12:34:00,
2013-04-09 07:40:00,65.6,58.6,29.68,SE,144,3.0,7.0,78,0.00,,BKN030,0.00,VWS V14.01,2013-04-09 12:40:00,
2013-04-09 07:45:00,65.7,58.7,29.68,SSE,148,3.0,7.0,78,0.00,,OVC038,0.00,VWS V14.01,2013-04-09 12:45:00,
2013-04-09 07:50:00,65.7,58.7,29.68,South,175,3.0,7.0,78,0.00,,OVC038,0.00,VWS V14.01,2013-04-09 12:50:00,
2013-04-09 07:55:00,65.8,58.8,29.68,ESE,115,4.0,7.0,78,0.00,,OVC038,0.00,VWS V14.01,2013-04-09 12:55:00,
2013-04-09 08:00:00,65.9,59.2,29.68,SSW,199,3.0,4.0,79,0.00,,OVC038,0.00,VWS V14.01,2013-04-09 13:00:00,
2013-04-09 08:05:00,65.9,59.2,29.68,SSE,153,6.0,7.0,79,0.00,,OVC038,0.00,VWS V14.01,2013-04-09 13:05:00,
2013-04-09 08:10:00,66.0,59.3,29.68,South,187,1.0,10.0,79,0.00,,OVC038,0.00,VWS V14.01,2013-04-09 13:10:00,
2013-04-09 08:15:00,66.1,59.4,29.68,SSW,194,6.0,10.0,79,0.00,,OVC038,0.00,VWS V14.01,2013-04-09 13:15:00,
2013-04-09 08:20:00,66.2,59.5,29.68,SE,133,2.0,10.0,79,0.00,,OVC038,0.00,VWS V14.01,2013-04-09 13:20:00,
2013-04-09 08:25:00,66.2,59.5,29.68,SSE,166,5.0,10.0,79,0.00,,OVC038,0.00,VWS V14.01,2013-04-09 13:25:00,
2013-04-09 08:30:00,66.3,59.6,29.69,SSE,157,7.0,10.0,79,0.00,,CLR,0.00,VWS V14.01,2013-04-09 13:30:00,
2013-04-09 08:31:00,66.3,59.6,29.69,SSE,159,3.0,7.0,79,0.00,,OVC038,0.00,VWS V14.01,2013-04-09 13:31:00,
2013-04-09 08:36:00,66.3,59.6,29.69,South,180,4.0,9.0,79,0.00,,OVC038,0.00,VWS V14.01,2013-04-09 13:36:00,
2013-04-09 08:41:00,66.4,59.3,29.69,South,184,4.0,9.0,78,0.00,,OVC034,0.00,VWS V14.01,2013-04-09 13:41:00,
2013-04-09 08:46:00,66.4,59.7,29.69,South,174,7.0,9.0,79,0.00,,OVC034,0.00,VWS V14.01,2013-04-09 13:46:00,
2013-04-09 08:52:00,66.5,59.4,29.69,SE,142,4.0,9.0,78,0.00,,OVC032,0.00,VWS V14.01,2013-04-09 13:52:00,
2013-04-09 08:57:00,66.6,59.5,29.69,SE,140,1.0,9.0,78,0.00,,OVC032,0.00,VWS V14.01,2013-04-09 13:57:00,
2013-04-09 09:00:00,66.6,59.9,29.69,South,180,5.0,9.0,79,0.00,,CLR,0.00,VWS V14.01,2013-04-09 14:00:00,
2013-04-09 09:02:00,66.6,59.5,29.69,SSE,159,4.0,7.0,78,0.00,,OVC032,0.00,VWS V14.01,2013-04-09 14:02:00,
2013-04-09 09:07:00,66.6,59.5,29.69,SSE,153,5.0,10.0,78,0.00,,OVC032,0.00,VWS V14.01,2013-04-09 14:07:00,
2013-04-09 09:12:00,66.7,59.6,29.69,SSE,167,3.0,10.0,78,0.00,,OVC032,0.00,VWS V14.01,2013-04-09 14:12:00,
2013-04-09 09:17:00,66.6,59.5,29.70,South,169,1.0,10.0,78,0.00,,OVC032,0.00,VWS V14.01,2013-04-09 14:17:00,
2013-04-09 09:23:00,66.6,59.9,29.70,SSE,157,2.0,10.0,79,0.00,,OVC032,0.00,VWS V14.01,2013-04-09 14:23:00,
2013-04-09 09:28:00,66.7,60.0,29.70,SSE,161,3.0,10.0,79,0.00,,OVC032,0.00,VWS V14.01,2013-04-09 14:28:00,
2013-04-09 09:30:00,66.7,59.6,29.70,SSE,151,4.0,10.0,78,0.00,,CLR,0.00,VWS V14.01,2013-04-09 14:30:00,
2013-04-09 09:33:00,66.7,60.0,29.70,SE,144,3.0,10.0,79,0.00,,OVC032,0.00,VWS V14.01,2013-04-09 14:33:00,
2013-04-09 09:38:00,66.8,60.1,29.70,SE,146,5.0,10.0,79,0.00,,OVC032,0.00,VWS V14.01,2013-04-09 14:38:00,
2013-04-09 09:43:00,66.9,60.2,29.71,SSE,156,3.0,10.0,79,0.00,,OVC026,0.00,VWS V14.01,2013-04-09 14:43:00,
2013-04-09 09:48:00,67.0,59.9,29.71,SSE,155,5.0,10.0,78,0.00,,OVC026,0.00,VWS V14.01,2013-04-09 14:48:00,
2013-04-09 09:53:00,67.0,59.9,29.71,South,190,6.0,10.0,78,0.00,,OVC026,0.00,VWS V14.01,2013-04-09 14:53:00,
2013-04-09 09:58:00,67.0,59.9,29.72,SSE,165,3.0,12.0,78,0.00,,OVC026,0.00,VWS V14.01,2013-04-09 14:58:00,
2013-04-09 10:00:00,67.0,59.9,29.71,ESE,115,9.0,12.0,78,0.00,,CLR,0.00,VWS V14.01,2013-04-09 15:00:00,
2013-04-09 10:03:00,67.1,60.0,29.72,SSE,150,10.0,10.0,78,0.00,,OVC026,0.00,VWS V14.01,2013-04-09 15:03:00,
2013-04-09 10:08:00,67.1,60.0,29.72,SSE,150,6.0,10.0,78,0.00,,OVC026,0.00,VWS V14.01,2013-04-09 15:08:00,
2013-04-09 10:13:00,67.1,59.7,29.72,South,171,3.0,11.0,77,0.00,,OVC026,0.00,VWS V14.01,2013-04-09 15:13:00,
2013-04-09 10:18:00,67.1,59.7,29.72,South,179,7.0,11.0,77,0.00,,OVC026,0.00,VWS V14.01,2013-04-09 15:18:00,
2013-04-09 10:24:00,67.2,59.8,29.72,South,169,7.0,12.0,77,0.00,,OVC026,0.00,VWS V14.01,2013-04-09 15:24:00,
2013-04-09 10:29:00,67.3,59.8,29.72,SSE,148,5.0,12.0,77,0.00,,OVC026,0.00,VWS V14.01,2013-04-09 15:29:00,
2013-04-09 10:30:00,67.3,59.8,29.72,SSE,155,3.0,12.0,77,0.00,,CLR,0.00,VWS V14.01,2013-04-09 15:30:00,
2013-04-09 10:34:00,67.4,60.0,29.72,South,183,6.0,8.0,77,0.00,,OVC026,0.00,VWS V14.01,2013-04-09 15:34:00,
2013-04-09 10:39:00,67.4,60.0,29.72,SSE,165,6.0,8.0,77,0.00,,OVC026,0.00,VWS V14.01,2013-04-09 15:39:00,
2013-04-09 10:44:00,67.5,60.0,29.72,SSE,159,1.0,10.0,77,0.00,,OVC026,0.00,VWS V14.01,2013-04-09 15:44:00,
2013-04-09 10:49:00,67.6,60.1,29.72,SSE,150,4.0,10.0,77,0.00,,OVC026,0.00,VWS V14.01,2013-04-09 15:49:00,
2013-04-09 10:54:00,67.7,59.9,29.72,South,182,6.0,10.0,76,0.00,,OVC026,0.00,VWS V14.01,2013-04-09 15:54:00,
2013-04-09 10:59:00,68.0,60.2,29.73,SSE,161,6.0,13.0,76,0.00,,OVC026,0.00,VWS V14.01,2013-04-09 15:59:00,
2013-04-09 11:00:00,68.0,60.2,29.73,SSE,148,7.0,13.0,76,0.00,,CLR,0.00,VWS V14.01,2013-04-09 16:00:00,
2013-04-09 11:05:00,68.1,60.3,29.72,SSE,168,3.0,11.0,76,0.00,,OVC026,0.00,VWS V14.01,2013-04-09 16:05:00,
2013-04-09 11:10:00,68.2,60.0,29.73,SSE,167,7.0,11.0,75,0.00,,OVC026,0.00,VWS V14.01,2013-04-09 16:10:00,
2013-04-09 11:15:00,68.4,60.2,29.72,SSE,165,3.0,11.0,75,0.00,,OVC026,0.00,VWS V14.01,2013-04-09 16:15:00,
2013-04-09 11:20:00,68.5,60.3,29.72,SE,139,3.0,11.0,75,0.00,,OVC026,0.00,VWS V14.01,2013-04-09 16:20:00,
2013-04-09 11:25:00,68.6,60.4,29.72,South,184,4.0,11.0,75,0.00,,OVC026,0.00,VWS V14.01,2013-04-09 16:25:00,
2013-04-09 11:30:00,68.6,60.4,29.72,South,174,4.0,4.0,75,0.00,,OVC026,0.00,VWS V14.01,2013-04-09 16:30:00,
2013-04-09 11:35:00,68.6,60.4,29.73,ESE,107,2.0,8.0,75,0.00,,OVC026,0.00,VWS V14.01,2013-04-09 16:35:00,
2013-04-09 11:40:00,68.6,60.4,29.73,SSW,195,1.0,8.0,75,0.00,,OVC026,0.00,VWS V14.01,2013-04-09 16:40:00,
2013-04-09 11:45:00,68.6,60.4,29.73,SSE,152,2.0,9.0,75,0.00,,OVC030,0.00,VWS V14.01,2013-04-09 16:45:00,
2013-04-09 11:50:00,68.6,60.7,29.73,SE,127,2.0,9.0,76,0.00,,OVC030,0.00,VWS V14.01,2013-04-09 16:50:00,
2013-04-09 11:55:00,68.6,60.7,29.72,SSE,151,6.0,9.0,76,0.00,,OVC028,0.00,VWS V14.01,2013-04-09 16:55:00,
2013-04-09 12:00:00,68.6,60.7,29.72,SSE,163,4.0,4.0,76,0.00,,OVC028,0.00,VWS V14.01,2013-04-09 17:00:00,
2013-04-09 12:05:00,68.7,60.8,29.72,SSE,159,4.0,10.0,76,0.00,,OVC028,0.00,VWS V14.01,2013-04-09 17:05:00,
2013-04-09 12:11:00,68.8,60.9,29.72,South,172,2.0,10.0,76,0.00,,OVC028,0.00,VWS V14.01,2013-04-09 17:11:00,
2013-04-09 12:16:00,69.0,61.1,29.72,SE,143,7.0,10.0,76,0.00,,OVC028,0.00,VWS V14.01,2013-04-09 17:16:00,
2013-04-09 12:21:00,69.2,61.3,29.72,SSE,148,4.0,10.0,76,0.00,,OVC028,0.00,VWS V14.01,2013-04-09 17:21:00,
2013-04-09 12:27:00,69.4,61.1,29.71,SSE,167,3.0,10.0,75,0.00,,OVC028,0.00,VWS V14.01,2013-04-09 17:27:00,
2013-04-09 12:30:00,69.5,61.2,29.71,South,183,1.0,10.0,75,0.00,,CLR,0.00,VWS V14.01,2013-04-09 17:30:00,
2013-04-09 12:32:00,69.6,61.3,29.71,SSW,209,3.0,8.0,75,0.00,,OVC028,0.00,VWS V14.01,2013-04-09 17:32:00,
2013-04-09 12:37:00,69.9,61.2,29.71,SSW,212,3.0,10.0,74,0.00,,OVC028,0.00,VWS V14.01,2013-04-09 17:37:00,
2013-04-09 12:42:00,70.0,61.3,29.71,South,182,4.0,10.0,74,0.00,,OVC028,0.00,VWS V14.01,2013-04-09 17:42:00,
2013-04-09 12:47:00,70.2,61.5,29.71,South,180,2.0,10.0,74,0.00,,OVC028,0.00,VWS V14.01,2013-04-09 17:47:00,
2013-04-09 12:52:00,70.5,61.4,29.71,ESE,119,3.0,10.0,73,0.00,,OVC030,0.00,VWS V14.01,2013-04-09 17:52:00,
2013-04-09 12:57:00,71.0,61.9,29.70,SSE,157,3.0,10.0,73,0.00,,OVC030,0.00,VWS V14.01,2013-04-09 17:57:00,
2013-04-09 13:00:00,71.2,61.7,29.70,SE,141,2.0,10.0,72,0.00,,CLR,0.00,VWS V14.01,2013-04-09 18:00:00,
2013-04-09 13:02:00,71.3,61.8,29.70,SSE,166,2.0,6.0,72,0.00,,OVC030,0.00,VWS V14.01,2013-04-09 18:02:00,
2013-04-09 13:07:00,71.7,61.8,29.70,South,175,1.0,6.0,71,0.00,,OVC030,0.00,VWS V14.01,2013-04-09 18:07:00,
2013-04-09 13:13:00,71.9,62.0,29.70,SSE,158,1.0,7.0,71,0.00,,OVC030,0.00,VWS V14.01,2013-04-09 18:13:00,
2013-04-09 13:18:00,72.5,62.2,29.69,South,169,4.0,8.0,70,0.00,,OVC030,0.00,VWS V14.01,2013-04-09 18:18:00,
2013-04-09 13:23:00,73.5,62.3,29.69,SE,134,3.0,9.0,68,0.00,,OVC030,0.00,VWS V14.01,2013-04-09 18:23:00,
2013-04-09 13:28:00,74.1,62.9,29.69,SSE,165,6.0,10.0,68,0.00,,OVC030,0.00,VWS V14.01,2013-04-09 18:28:00,
2013-04-09 13:30:00,74.2,62.1,29.69,SSE,159,5.0,10.0,66,0.00,,CLR,0.00,VWS V14.01,2013-04-09 18:30:00,
2013-04-09 13:33:00,74.1,62.0,29.69,SSE,149,3.0,9.0,66,0.00,,OVC030,0.00,VWS V14.01,2013-04-09 18:33:00,
2013-04-09 13:38:00,74.4,62.7,29.69,SSE,163,1.0,11.0,67,0.00,,OVC030,0.00,VWS V14.01,2013-04-09 18:38:00,
2013-04-09 13:43:00,74.6,62.1,29.68,SSW,209,4.0,11.0,65,0.00,,OVC032,0.00,VWS V14.01,2013-04-09 18:43:00,
2013-04-09 13:48:00,75.0,62.9,29.68,SE,140,7.0,11.0,66,0.00,,OVC032,0.00,VWS V14.01,2013-04-09 18:48:00,
2013-04-09 13:53:00,75.5,62.5,29.68,SSE,162,2.0,11.0,64,0.00,,OVC032,0.00,VWS V14.01,2013-04-09 18:53:00,
2013-04-09 13:59:00,76.3,62.3,29.68,SSW,204,2.0,11.0,62,0.00,,OVC032,0.00,VWS V14.01,2013-04-09 18:59:00,
2013-04-09 14:00:00,76.4,62.9,29.68,SSE,164,5.0,11.0,63,0.00,,CLR,0.00,VWS V14.01,2013-04-09 19:00:00,
2013-04-09 14:04:00,77.1,63.5,29.68,SSE,164,5.0,7.0,63,0.00,,OVC032,0.00,VWS V14.01,2013-04-09 19:04:00,
2013-04-09 14:09:00,77.6,62.2,29.67,South,169,2.0,8.0,59,0.00,,OVC032,0.00,VWS V14.01,2013-04-09 19:09:00,
2013-04-09 14:14:00,77.9,62.0,29.67,SE,146,8.0,9.0,58,0.00,,OVC032,0.00,VWS V14.01,2013-04-09 19:14:00,
2013-04-09 14:19:00,77.9,62.4,29.67,SW,226,3.0,14.0,59,0.00,,OVC032,0.00,VWS V14.01,2013-04-09 19:19:00,
2013-04-09 14:24:00,78.4,62.4,29.67,South,189,6.0,14.0,58,0.00,,OVC032,0.00,VWS V14.01,2013-04-09 19:24:00,
2013-04-09 14:30:00,78.5,61.5,29.67,South,186,9.0,14.0,56,0.00,,OVC032,0.00,VWS V14.01,2013-04-09 19:30:00,
2013-04-09 14:35:00,78.3,61.8,29.66,SSE,161,2.0,11.0,57,0.00,,OVC032,0.00,VWS V14.01,2013-04-09 19:35:00,
2013-04-09 14:40:00,78.7,61.7,29.66,South,175,8.0,14.0,56,0.00,,OVC032,0.00,VWS V14.01,2013-04-09 19:40:00,
2013-04-09 14:45:00,78.9,61.4,29.66,South,184,1.0,14.0,55,0.00,,OVC049,0.00,VWS V14.01,2013-04-09 19:45:00,
2013-04-09 14:50:00,79.3,61.8,29.65,SSW,192,3.0,14.0,55,0.00,,OVC049,0.00,VWS V14.01,2013-04-09 19:50:00,
2013-04-09 14:55:00,79.1,61.6,29.65,South,188,10.0,14.0,55,0.00,,OVC049,0.00,VWS V14.01,2013-04-09 19:55:00,
2013-04-09 15:00:00,79.2,61.7,29.65,SSE,167,6.0,8.0,55,0.00,,OVC049,0.00,VWS V14.01,2013-04-09 20:00:00,
2013-04-09 15:05:00,79.8,62.2,29.65,South,175,9.0,10.0,55,0.00,,OVC049,0.00,VWS V14.01,2013-04-09 20:05:00,
2013-04-09 15:11:00,80.0,61.3,29.65,South,173,9.0,10.0,53,0.00,,OVC049,0.00,VWS V14.01,2013-04-09 20:11:00,
2013-04-09 15:16:00,79.7,61.1,29.64,SSW,196,4.0,12.0,53,0.00,,OVC049,0.00,VWS V14.01,2013-04-09 20:16:00,
2013-04-09 15:21:00,80.0,61.9,29.64,South,171,7.0,12.0,54,0.00,,OVC049,0.00,VWS V14.01,2013-04-09 20:21:00,
2013-04-09 15:27:00,80.3,62.2,29.64,South,173,6.0,13.0,54,0.00,,OVC049,0.00,VWS V14.01,2013-04-09 20:27:00,
2013-04-09 15:30:00,80.5,62.3,29.64,South,189,5.0,13.0,54,0.00,,CLR,0.00,VWS V14.01,2013-04-09 20:30:00,
2013-04-09 15:32:00,80.7,62.0,29.64,SSE,147,4.0,9.0,53,0.00,,OVC049,0.00,VWS V14.01,2013-04-09 20:32:00,
2013-04-09 15:37:00,80.8,61.5,29.64,SE,145,4.0,11.0,52,0.00,,OVC049,0.00,VWS V14.01,2013-04-09 20:37:00,
2013-04-09 15:42:00,80.9,62.7,29.64,South,176,4.0,11.0,54,0.00,,SCT055,0.00,VWS V14.01,2013-04-09 20:42:00,
2013-04-09 15:47:00,80.9,61.6,29.64,SSE,168,3.0,11.0,52,0.00,,SCT055,0.00,VWS V14.01,2013-04-09 20:47:00,
2013-04-09 15:52:00,80.9,62.2,29.64,SSE,147,6.0,11.0,53,0.00,,SCT055,0.00,VWS V14.01,2013-04-09 20:52:00,
2013-04-09 15:57:00,80.1,60.4,29.64,SE,126,2.0,11.0,51,0.00,,SCT055,0.00,VWS V14.01,2013-04-09 20:57:00,
2013-04-09 16:00:00,79.6,61.0,29.64,SE,126,5.0,11.0,53,0.00,,CLR,0.00,VWS V14.01,2013-04-09 21:00:00,
2013-04-09 16:03:00,79.1,61.0,29.64,SSE,157,4.0,7.0,54,0.00,,SCT055,0.00,VWS V14.01,2013-04-09 21:03:00,
2013-04-09 16:08:00,78.6,60.6,29.64,SSE,149,3.0,15.0,54,0.00,,SCT055,0.00,VWS V14.01,2013-04-09 21:08:00,
2013-04-09 16:13:00,78.7,61.2,29.63,SE,132,7.0,15.0,55,0.00,,SCT055,0.00,VWS V14.01,2013-04-09 21:13:00,
2013-04-09 16:18:00,79.3,62.3,29.64,SE,137,2.0,15.0,56,0.00,,SCT055,0.00,VWS V14.01,2013-04-09 21:18:00,
2013-04-09 16:23:00,79.9,62.3,29.64,ESE,113,7.0,15.0,55,0.00,,SCT055,0.00,VWS V14.01,2013-04-09 21:23:00,
2013-04-09 16:28:00,79.7,61.6,29.64,SSE,157,4.0,15.0,54,0.00,,SCT055,0.00,VWS V14.01,2013-04-09 21:28:00,
2013-04-09 16:30:00,79.5,60.9,29.64,SSE,153,6.0,15.0,53,0.00,,CLR,0.00,VWS V14.01,2013-04-09 21:30:00,
2013-04-09 16:33:00,79.2,60.6,29.64,South,171,6.0,9.0,53,0.00,,SCT055,0.00,VWS V14.01,2013-04-09 21:33:00,
2013-04-09 16:38:00,79.0,61.0,29.63,SSE,152,6.0,10.0,54,0.00,,SCT055,0.00,VWS V14.01,2013-04-09 21:38:00,
2013-04-09 16:43:00,79.6,62.0,29.63,SSE,166,2.0,10.0,55,0.00,,FEW055,0.00,VWS V14.01,2013-04-09 21:43:00,
2013-04-09 16:48:00,80.2,61.5,29.63,South,175,6.0,10.0,53,0.00,,FEW055,0.00,VWS V14.01,2013-04-09 21:48:00,
2013-04-09 16:54:00,79.8,60.6,29.63,South,176,3.0,10.0,52,0.00,,FEW055,0.00,VWS V14.01,2013-04-09 21:54:00,
2013-04-09 16:59:00,79.5,61.4,29.63,ESE,117,11.0,11.0,54,0.00,,FEW055,0.00,VWS V14.01,2013-04-09 21:59:00,
2013-04-09 17:00:00,79.4,61.3,29.63,SSE,151,6.0,11.0,54,0.00,,CLR,0.00,VWS V14.01,2013-04-09 22:00:00,
2013-04-09 17:04:00,79.4,60.8,29.63,SSE,148,12.0,12.0,53,0.00,,FEW055,0.00,VWS V14.01,2013-04-09 22:04:00,
2013-04-09 17:09:00,79.2,60.6,29.63,SSE,158,3.0,12.0,53,0.00,,FEW055,0.00,VWS V14.01,2013-04-09 22:09:00,
2013-04-09 17:14:00,78.7,60.2,29.63,SE,128,5.0,12.0,53,0.00,,FEW055,0.00,VWS V14.01,2013-04-09 22:14:00,
2013-04-09 17:19:00,78.4,60.9,29.63,SE,144,3.0,12.0,55,0.00,,FEW055,0.00,VWS V14.01,2013-04-09 22:19:00,
2013-04-09 17:25:00,78.4,60.4,29.63,SE,143,4.0,12.0,54,0.00,,FEW055,0.00,VWS V14.01,2013-04-09 22:25:00,
2013-04-09 17:30:00,78.2,60.2,29.63,SSE,155,3.0,12.0,54,0.00,,FEW055,0.00,VWS V14.01,2013-04-09 22:30:00,
2013-04-09 17:35:00,78.2,60.2,29.63,SSE,155,3.0,10.0,54,0.00,,FEW055,0.00,VWS V14.01,2013-04-09 22:35:00,
2013-04-09 17:40:00,78.3,59.8,29.63,SSE,148,3.0,10.0,53,0.00,,FEW055,0.00,VWS V14.01,2013-04-09 22:40:00,
2013-04-09 17:45:00,78.5,59.4,29.63,SE,136,3.0,10.0,52,0.00,,BKN055,0.00,VWS V14.01,2013-04-09 22:45:00,
2013-04-09 17:50:00,78.8,59.7,29.63,SE,125,7.0,10.0,52,0.00,,BKN055,0.00,VWS V14.01,2013-04-09 22:50:00,
2013-04-09 17:56:00,79.0,59.3,29.63,South,174,8.0,10.0,51,0.00,,BKN055,0.00,VWS V14.01,2013-04-09 22:56:00,
2013-04-09 18:00:00,79.0,59.3,29.63,SE,144,5.0,13.0,51,0.00,,CLR,0.00,VWS V14.01,2013-04-09 23:00:00,
2013-04-09 18:01:00,79.0,59.3,29.63,SE,129,3.0,5.0,51,0.00,,BKN055,0.00,VWS V14.01,2013-04-09 23:01:00,
2013-04-09 18:06:00,79.0,59.3,29.63,SSE,153,5.0,9.0,51,0.00,,BKN055,0.00,VWS V14.01,2013-04-09 23:06:00,
2013-04-09 18:11:00,79.1,58.9,29.63,SSE,158,3.0,12.0,50,0.00,,BKN055,0.00,VWS V14.01,2013-04-09 23:11:00,
2013-04-09 18:16:00,79.0,58.8,29.64,ESE,120,8.0,12.0,50,0.00,,BKN055,0.00,VWS V14.01,2013-04-09 23:16:00,
2013-04-09 18:22:00,79.0,58.8,29.64,South,191,5.0,12.0,50,0.00,,BKN055,0.00,VWS V14.01,2013-04-09 23:22:00,
2013-04-09 18:27:00,79.0,59.3,29.63,South,176,6.0,12.0,51,0.00,,BKN055,0.00,VWS V14.01,2013-04-09 23:27:00,
2013-04-09 18:30:00,78.9,58.7,29.63,South,169,6.0,12.0,50,0.00,,CLR,0.00,VWS V14.01,2013-04-09 23:30:00,
2013-04-09 18:32:00,78.9,58.7,29.63,SSE,152,3.0,9.0,50,0.00,,BKN055,0.00,VWS V14.01,2013-04-09 23:32:00,
2013-04-09 18:37:00,78.9,59.2,29.63,SSE,166,5.0,9.0,51,0.00,,BKN055,0.00,VWS V14.01,2013-04-09 23:37:00,
2013-04-09 18:42:00,78.8,59.7,29.63,SSE,153,4.0,9.0,52,0.00,,OVC041,0.00,VWS V14.01,2013-04-09 23:42:00,
2013-04-09 18:47:00,78.7,59.6,29.63,SE,132,2.0,9.0,52,0.00,,OVC041,0.00,VWS V14.01,2013-04-09 23:47:00,
2013-04-09 18:52:00,78.5,59.4,29.63,SSE,161,5.0,9.0,52,0.00,,OVC041,0.00,VWS V14.01,2013-04-09 23:52:00,
2013-04-09 18:57:00,78.4,59.9,29.62,South,175,2.0,9.0,53,0.00,,OVC041,0.00,VWS V14.01,2013-04-09 23:57:00,
2013-04-09 19:00:00,78.3,59.8,29.63,SSE,153,12.0,12.0,53,0.00,,CLR,0.00,VWS V14.01,2013-04-10 00:00:00,
2013-04-09 19:02:00,78.2,60.2,29.62,ESE,122,7.0,12.0,54,0.00,,OVC041,0.00,VWS V14.01,2013-04-10 00:02:00,
2013-04-09 19:07:00,78.1,60.1,29.63,SSE,166,2.0,12.0,54,0.00,,OVC041,0.00,VWS V14.01,2013-04-10 00:07:00,
2013-04-09 19:13:00,77.9,60.5,29.63,SE,142,4.0,12.0,55,0.00,,BKN045,0.00,VWS V14.01,2013-04-10 00:13:00,
2013-04-09 19:18:00,77.7,60.8,29.64,SE,128,6.0,12.0,56,0.00,,BKN045,0.00,VWS V14.01,2013-04-10 00:18:00,
2013-04-09 19:23:00,77.6,60.7,29.64,SSE,167,3.0,12.0,56,0.00,,BKN045,0.00,VWS V14.01,2013-04-10 00:23:00,
2013-04-09 19:28:00,77.5,61.1,29.64,SSE,163,6.0,12.0,57,0.00,,BKN045,0.00,VWS V14.01,2013-04-10 00:28:00,
2013-04-09 19:30:00,77.5,61.1,29.64,SSE,150,5.0,12.0,57,0.00,,CLR,0.00,VWS V14.01,2013-04-10 00:30:00,
2013-04-09 19:33:00,77.4,61.5,29.65,SSW,202,7.0,9.0,58,0.00,,BKN045,0.00,VWS V14.01,2013-04-10 00:33:00,
2013-04-09 19:38:00,77.4,61.5,29.65,SE,142,4.0,9.0,58,0.00,,BKN045,0.00,VWS V14.01,2013-04-10 00:38:00,
2013-04-09 19:43:00,77.3,61.4,29.65,SSE,161,3.0,9.0,58,0.00,,BKN045,0.00,VWS V14.01,2013-04-10 00:43:00,
2013-04-09 19:49:00,77.1,61.7,29.65,South,171,4.0,10.0,59,0.00,,BKN045,0.00,VWS V14.01,2013-04-10 00:49:00,
2013-04-09 19:54:00,77.0,62.1,29.65,SSE,153,5.0,10.0,60,0.00,,BKN045,0.00,VWS V14.01,2013-04-10 00:54:00,
2013-04-09 19:59:00,77.0,62.1,29.65,SE,144,2.0,10.0,60,0.00,,BKN045,0.00,VWS V14.01,2013-04-10 00:59:00,
2013-04-09 20:00:00,77.0,62.1,29.65,South,178,3.0,10.0,60,0.00,,CLR,0.00,VWS V14.01,2013-04-10 01:00:00,
2013-04-09 20:04:00,76.9,62.0,29.64,SE,134,3.0,6.0,60,0.00,,BKN045,0.00,VWS V14.01,2013-04-10 01:04:00,
2013-04-09 20:09:00,76.6,62.2,29.63,SE,137,3.0,6.0,61,0.00,,BKN045,0.00,VWS V14.01,2013-04-10 01:09:00,
2013-04-09 20:14:00,76.4,62.4,29.64,SSE,157,4.0,6.0,62,0.00,,BKN045,0.00,VWS V14.01,2013-04-10 01:14:00,
2013-04-09 20:19:00,76.2,62.2,29.63,SSE,153,3.0,9.0,62,0.00,,BKN045,0.00,VWS V14.01,2013-04-10 01:19:00,
2013-04-09 20:24:00,76.1,62.6,29.62,SSE,151,4.0,9.0,63,0.00,,BKN045,0.00,VWS V14.01,2013-04-10 01:24:00,
2013-04-09 20:29:00,76.0,62.5,29.62,SE,146,4.0,9.0,63,0.00,,BKN045,0.00,VWS V14.01,2013-04-10 01:29:00,
2013-04-09 20:30:00,75.9,62.4,29.62,SSE,153,5.0,9.0,63,0.00,,CLR,0.00,VWS V14.01,2013-04-10 01:30:00,
2013-04-09 20:34:00,75.8,62.8,29.61,SSE,161,5.0,7.0,64,0.00,,BKN045,0.00,VWS V14.01,2013-04-10 01:34:00,
2013-04-09 20:39:00,75.7,62.7,29.61,SE,141,4.0,8.0,64,0.00,,BKN045,0.00,VWS V14.01,2013-04-10 01:39:00,
2013-04-09 20:45:00,75.7,63.1,29.62,SE,135,5.0,11.0,65,0.00,,BKN065,0.00,VWS V14.01,2013-04-10 01:45:00,
2013-04-09 20:50:00,75.7,63.1,29.62,SSE,163,5.0,11.0,65,0.00,,BKN065,0.00,VWS V14.01,2013-04-10 01:50:00,
2013-04-09 20:55:00,75.7,63.5,29.58,SE,126,8.0,13.0,66,0.00,,BKN065,0.00,VWS V14.01,2013-04-10 01:55:00,
2013-04-09 21:00:00,75.6,63.5,29.60,South,171,6.0,8.0,66,0.00,,BKN065,0.00,VWS V14.01,2013-04-10 02:00:00,
2013-04-09 21:05:00,75.6,63.9,29.62,SSE,165,4.0,11.0,67,0.00,,BKN065,0.00,VWS V14.01,2013-04-10 02:05:00,
2013-04-09 21:10:00,75.6,63.9,29.63,SE,133,7.0,11.0,67,0.00,,BKN065,0.00,VWS V14.01,2013-04-10 02:10:00,
2013-04-09 21:15:00,75.6,63.9,29.63,SSE,165,5.0,11.0,67,0.00,,BKN065,0.00,VWS V14.01,2013-04-10 02:15:00,
2013-04-09 21:21:00,75.5,63.8,29.64,SE,146,3.0,11.0,67,0.00,,BKN065,0.00,VWS V14.01,2013-04-10 02:21:00,
2013-04-09 21:26:00,75.4,63.7,29.64,ESE,110,2.0,11.0,67,0.00,,BKN065,0.00,VWS V14.01,2013-04-10 02:26:00,
2013-04-09 21:30:00,75.3,64.0,29.64,SSE,167,3.0,11.0,68,0.00,,CLR,0.00,VWS V14.01,2013-04-10 02:30:00,
2013-04-09 21:32:00,75.2,63.9,29.64,SE,141,3.0,4.0,68,0.00,,BKN065,0.00,VWS V14.01,2013-04-10 02:32:00,
2013-04-09 21:37:00,75.0,63.7,29.65,SSE,152,1.0,5.0,68,0.00,,BKN065,0.00,VWS V14.01,2013-04-10 02:37:00,
2013-04-09 21:42:00,74.8,64.0,29.64,SE,142,2.0,5.0,69,0.00,,FEW032,0.00,VWS V14.01,2013-04-10 02:42:00,
2013-04-09 21:47:00,74.6,63.8,29.65,SSE,155,4.0,5.0,69,0.00,,FEW032,0.00,VWS V14.01,2013-04-10 02:47:00,
2013-04-09 21:52:00,74.4,64.0,29.65,SE,132,2.0,5.0,70,0.00,,FEW032,0.00,VWS V14.01,2013-04-10 02:52:00,
2013-04-09 21:57:00,74.4,64.0,29.65,SE,142,0.0,5.0,70,0.00,,FEW032,0.00,VWS V14.01,2013-04-10 02:57:00,
2013-04-09 22:00:00,74.4,64.0,29.65,SSE,149,2.0,5.0,70,0.00,,CLR,0.00,VWS V14.01,2013-04-10 03:00:00,
2013-04-09 22:02:00,74.3,63.9,29.65,SE,146,2.0,3.0,70,0.00,,FEW032,0.00,VWS V14.01,2013-04-10 03:02:00,
2013-04-09 22:07:00,74.2,64.2,29.64,ESE,115,2.0,4.0,71,0.00,,FEW032,0.00,VWS V14.01,2013-04-10 03:07:00,
2013-04-09 22:12:00,74.0,64.0,29.63,SE,127,2.0,4.0,71,0.00,,FEW032,0.00,VWS V14.01,2013-04-10 03:12:00,
2013-04-09 22:17:00,73.9,64.3,29.63,SE,128,1.0,5.0,72,0.00,,FEW032,0.00,VWS V14.01,2013-04-10 03:17:00,
2013-04-09 22:22:00,73.7,64.1,29.64,SE,145,0.0,5.0,72,0.00,,FEW032,0.00,VWS V14.01,2013-04-10 03:22:00,
2013-04-09 22:27:00,73.7,64.1,29.64,SSE,150,2.0,8.0,72,0.00,,FEW032,0.00,VWS V14.01,2013-04-10 03:27:00,
2013-04-09 22:30:00,73.6,64.4,29.64,SSE,163,0.0,8.0,73,0.00,,CLR,0.00,VWS V14.01,2013-04-10 03:30:00,
2013-04-09 22:32:00,73.6,64.4,29.64,SSE,161,1.0,2.0,73,0.00,,FEW032,0.00,VWS V14.01,2013-04-10 03:32:00,
2013-04-09 22:37:00,73.4,64.2,29.64,South,169,1.0,4.0,73,0.00,,FEW032,0.00,VWS V14.01,2013-04-10 03:37:00,
2013-04-09 22:42:00,73.3,64.5,29.64,SE,144,2.0,4.0,74,0.00,,FEW050,0.00,VWS V14.01,2013-04-10 03:42:00,
2013-04-09 22:47:00,73.2,64.4,29.65,SSE,155,2.0,5.0,74,0.00,,FEW050,0.00,VWS V14.01,2013-04-10 03:47:00,
2013-04-09 22:53:00,73.2,64.4,29.64,SE,128,3.0,5.0,74,0.00,,FEW050,0.00,VWS V14.01,2013-04-10 03:53:00,
2013-04-09 22:58:00,73.1,64.3,29.64,South,173,0.0,5.0,74,0.00,,FEW050,0.00,VWS V14.01,2013-04-10 03:58:00,
2013-04-09 23:00:00,73.1,64.3,29.65,SE,143,4.0,5.0,74,0.00,,FEW050,0.00,VWS V14.01,2013-04-10 04:00:00,
2013-04-09 23:01:00,73.0,64.2,29.64,South,182,2.0,6.0,74,0.00,,FEW050,0.00,VWS V14.01,2013-04-10 04:01:00,
2013-04-09 23:06:00,73.1,64.3,29.64,SSE,161,2.0,6.0,74,0.00,,FEW050,0.00,VWS V14.01,2013-04-10 04:06:00,
2013-04-09 23:12:00,73.1,64.3,29.64,SE,144,1.0,6.0,74,0.00,,FEW050,0.00,VWS V14.01,2013-04-10 04:12:00,
2013-04-09 23:17:00,73.1,64.3,29.64,South,181,1.0,8.0,74,0.00,,FEW050,0.00,VWS V14.01,2013-04-10 04:17:00,
2013-04-09 23:22:00,73.1,64.3,29.64,South,170,5.0,8.0,74,0.00,,FEW050,0.00,VWS V14.01,2013-04-10 04:22:00,
2013-04-09 23:27:00,73.4,64.6,29.64,South,180,1.0,8.0,74,0.00,,FEW050,0.00,VWS V14.01,2013-04-10 04:27:00,
2013-04-09 23:30:00,73.5,64.7,29.64,South,184,1.0,8.0,74,0.00,,CLR,0.00,VWS V14.01,2013-04-10 04:30:00,
2013-04-09 23:32:00,73.6,64.4,29.64,SSE,159,2.0,4.0,73,0.00,,FEW050,0.00,VWS V14.01,2013-04-10 04:32:00,
2013-04-09 23:37:00,73.7,64.5,29.64,South,186,1.0,6.0,73,0.00,,FEW050,0.00,VWS V14.01,2013-04-10 04:37:00,
2013-04-09 23:42:00,73.9,64.7,29.64,SSE,156,6.0,9.0,73,0.00,,CLR,0.00,VWS V14.01,2013-04-10 04:42:00,
2013-04-09 23:47:00,74.2,64.6,29.65,SSW,194,4.0,9.0,72,0.00,,CLR,0.00,VWS V14.01,2013-04-10 04:47:00,
2013-04-09 23:52:00,74.4,64.8,29.64,South,188,5.0,9.0,72,0.00,,CLR,0.00,VWS V14.01,2013-04-10 04:52:00,
2013-04-09 23:57:00,74.4,64.8,29.64,South,178,5.0,13.0,72,0.00,,CLR,0.00,VWS V14.01,2013-04-10 04:57:00,